Location: Goheenville
(40.9070°N, 79.3720°W)
Time: 02:51:56
(UTC-05:00)

Daily predictions for brighter satellites

Satellite Brightness Start Highest point End
(mag) Time Altitude Azimuth Time Altitude Azimuth Time Altitude Azimuth
SL-16 R/B 4.3 04:27:06 16° NNE 04:27:06 16° NNE 04:28:09 10° NNE
USA 215 4.4 04:22:41 10° ENE 04:28:41 38° SE 04:32:45 19° S
CENTAUR R/B 3.8 04:41:20 29° N 04:41:20 29° N 04:45:08 10° NNE
USA 32 4.5 04:43:48 59° ESE 04:43:48 59° ESE 04:48:29 10° SSE
Lacrosse 5 2.5 04:44:47 52° ESE 04:44:47 52° ESE 04:49:23 10° NE
SL-08 ROCKET BODY 4.5 04:38:44 10° S 04:44:39 72° E 04:50:31 10° NNE
Cosmos 2327 Rocket 4.4 04:54:19 10° S 05:00:42 90° E 05:07:02 10° N
Cosmos 2074 Rocket 3.8 05:03:51 10° SSW 05:10:07 73° W 05:16:23 10° N
Tiangong 2 3.3 05:13:30 25° ENE 05:13:30 25° ENE 05:15:01 10° E
Cosmos 2369 Rocket 2.9 05:14:29 20° N 05:18:16 52° ENE 05:23:48 10° SE
CRYOSAT 2 4.4 05:14:37 10° S 05:19:30 79° E 05:24:25 10° N
SKYMED 2 4.0 05:16:12 10° SSE 05:20:28 60° ENE 05:22:50 25° N
Cosmos 1603 3.6 05:18:59 48° SW 05:20:29 66° WNW 05:26:09 10° NNE
SJ-6F 4.2 05:22:02 10° N 05:26:07 85° WNW 05:30:11 10° SSW
Cosmos 2184 Rocket 4.0 05:22:24 10° SSW 05:28:24 54° W 05:34:30 10° N
Celestis-02/Orion 38 4.5 05:23:25 10° SSE 05:28:36 84° WSW 05:31:02 33° NNW
NOAA 6 3.9 05:24:35 10° NNE 05:29:44 83° WNW 05:34:52 10° SSW
Cosmos 44 3.8 05:25:13 10° SSW 05:30:32 66° ESE 05:35:43 10° NE
Transit 2A Rocket 4.4 05:31:48 62° WNW 05:32:24 73° WSW 05:36:41 10° SSE
Cosmos 1536 3.0 05:36:41 10° S 05:40:38 70° E 05:44:38 10° NNE
USA 229 DEB 4.4 05:34:29 10° SSW 05:41:10 56° ESE 05:47:56 10° NE
USA 229 4.4 05:34:36 10° SSW 05:41:16 56° ESE 05:48:01 10° NE
Cosmos 1025 Rocket 3.6 05:38:46 10° N 05:43:06 57° E 05:47:22 10° SSE
Cosmos 1943 3.1 05:37:52 10° SSW 05:43:29 87° ESE 05:49:10 10° NNE
CZ-4 R/B 3.9 05:40:29 10° NE 05:43:36 22° E 05:46:40 10° SSE
Cosmos 2154 Rocket 3.9 05:38:07 10° S 05:44:19 79° W 05:50:33 10° N
Cosmos 1633 2.6 05:46:57 10° SSW 05:50:30 53° W 05:54:05 10° N
Abrixas rocket 2.5 05:55:53 45° NW 05:56:11 46° NNW 05:59:27 10° NE
Cosmos 1943 Rocket 3.0 05:51:17 10° NNW 05:56:37 49° ENE 06:01:56 10° SE
DELTA 2 R/B(2) 4.0 05:59:39 40° SW 06:00:18 58° S 06:02:06 10° E
Cosmos 2056 Rocket 4.1 05:59:37 27° WNW 06:01:10 33° W 06:05:42 10° SSW
Okean 1 Rocket 3.4 05:57:46 10° SSW 06:01:56 42° WNW 06:06:07 10° N
CZ-3 R/B 3.4 05:55:43 10° SW 06:03:48 22° S 06:07:27 10° SE
Lacrosse 4 Rocket 3.0 06:03:17 10° N 06:07:00 30° NE 06:10:37 10° ESE
SL-16 R/B 4.1 06:09:01 12° NNW 06:09:01 12° NNW 06:10:02 10° NNW
COSMO-SKYMED 1 3.1 06:04:30 10° SSW 06:08:33 38° W 06:11:25 17° NW
USA 215 3.3 06:05:26 10° NE 06:11:52 63° NW 06:18:17 10° WSW
Ariane Rocket 3.0 06:07:47 10° N 06:12:47 62° WNW 06:17:45 10° SSW
SL-8 Rocket 4.1 06:07:26 10° S 06:13:42 82° E 06:19:57 10° N
Cosmos 1048 Rocket 4.5 06:10:37 10° S 06:15:40 63° ESE 06:20:48 10° NNE
CZ-2C R/B 3.7 06:10:48 10° NNE 06:15:47 46° E 06:20:36 10° S
Cosmos 44 Rocket 4.1 06:13:51 15° WSW 06:17:31 32° NW 06:22:06 10° NNE
SL-24 DEB 4.5 06:18:31 10° SSW 06:23:10 50° W 06:27:51 10° NNW
Okean 1-7 Rocket 4.4 06:21:27 12° NNW 06:24:57 30° W 06:28:45 10° SSW
Cosmos 1975 4.3 06:22:06 10° SSE 06:25:58 42° E 06:29:51 10° NNE
Cosmos 2366 rocket 4.3 06:19:57 10° S 06:26:14 75° E 06:32:34 10° N
Lacrosse 5 2.7 06:24:03 15° W 06:27:35 32° NNW 06:32:10 10° NNE
Cosmos 2263 4.3 06:22:38 10° NNW 06:28:09 60° WSW 06:33:38 10° S
Cosmos 1892 Rocket 3.5 06:24:36 10° N 06:29:05 78° W 06:33:33 10° S
Meteor 1-28 Rocket 3.8 06:26:43 10° SSW 06:30:13 35° W 06:33:46 10° NNW
Cosmos 1900 4.3 06:26:05 11° NW 06:30:50 68° WSW 06:35:43 10° SSE
CENTAUR R/B 4.3 06:28:32 11° NW 06:31:32 14° NNW 06:35:15 10° NNE
Helios 1B rocket 2.9 06:28:34 10° SSE 06:32:40 63° ENE 06:36:47 10° N
Cosmos 2218 Rocket 4.1 06:28:07 10° S 06:34:31 84° W 06:40:57 10° N
Meteor 1-11 Rocket 4.5 06:30:01 10° SW 06:35:08 31° WNW 06:40:10 10° N
Cosmos 1340 2.9 06:37:52 10° NNW 06:41:32 50° W 06:45:12 10° S
IDEFIX/ARIANE 42P 2.8 06:36:45 10° NNE 06:41:58 79° ESE 06:47:11 10° S
CSL-04 Rocket 4.0 06:37:59 10° N 06:43:13 43° WNW 06:48:22 10° SW
Cosmos 1461 3.6 06:39:56 10° SSW 06:44:13 62° ESE 06:48:21 10° NE
Tiangong 2 1.4 06:45:33 11° W 06:48:30 57° SSW 06:51:36 10° ESE
SL-27 R/B 3.5 06:45:16 10° S 06:48:43 53° ESE 06:52:15 10° NNE
CSL-04 Debris 4.5 06:44:08 10° N 06:49:19 45° WNW 06:54:29 10° SW
SJ-7 4.4 06:45:45 10° NNE 06:49:56 87° WNW 06:54:01 10° SSW
Cosmos 1452 Rocket 4.4 06:45:48 10° NW 06:50:20 30° W 06:54:51 10° SSW
Cosmos 2084 3.3 06:49:04 10° SW 06:52:51 51° NW 06:56:35 10° NNE
Cosmos 1455 Rocket 3.1 06:49:07 10° SSW 06:53:22 58° W 06:57:40 10° N
COSMOS 2406 3.5 06:52:17 10° SSW 06:57:55 77° ESE 07:03:37 10° NNE
Cosmos 1727 Rocket 4.0 06:52:48 10° N 06:58:59 74° W 07:05:09 10° S
NOSS 3-1 (C) 3.7 06:54:40 10° SSW 07:00:26 75° ESE 07:06:52 10° NE
Cosmos 2369 Rocket 3.5 06:57:35 10° NW 07:01:51 22° W 07:06:06 10° SSW
